Location: Alladorf
(49.9620°N, 11.3790°E)
Time: 21:21:09
(UTC+00:00)

ERBS - Pass Details

Date: 29 November 2020
Orbit: 403 x 423 km, 57.0° (Epoch: 24 January)

Event Time Altitude Azimuth Distance (km) Brightness Sun altitude
Exits shadow 04:38:20 28° 11° (N) 805 3.6 -20.2°
Drops below altitude 10° 04:40:37 10° 48° (NE) 1,496 5.5 -19.8°
Sets 04:42:52 0° 59° (ENE) 2,366 6.8 -19.5°
